Location: Austin
(30.3000°N, 97.7500°W)
Time: 22:24:01
(UTC-06:00)

SEDSat Delta rocket - Pass Details

Date: 03 December 2025
Orbit: 529 x 966 km, 31.4° (Epoch: 07 December)

Event Time Altitude Azimuth Distance (km) Brightness Sun altitude
Exits shadow 04:48:35 35° 145° (SE) 1,067 4.5 -30.2°
Drops below altitude 10° 04:51:26 10° 124° (SE) 2,003 6.4 -29.6°
Sets 04:53:40 0° 120° (ESE) 2,847 7.5 -29.2°
